Location: Newark
(12.4436°N, 0.6167°W)
Time: 07:07:59
(UTC+00:00)

deb Explorer IX - Pass Details

Date: 16 December 2019
Orbit: 548 x 1101 km, 38.8° (Epoch: 19 January)

Event Time Altitude Azimuth Distance (km) Brightness Sun altitude
Rises 19:28:47 0° 324° (NW) 3,590 ? -25.5°
Reaches altitude 10° 19:31:41 10° 336° (NNW) 2,727 ? -26.2°
Enters shadow 19:34:38 22° 358° (N) 2,047 ? -26.9°
Maximum altitude 19:37:23 29° 34° (NE) 1,814 - -27.5°
Drops below altitude 10° 19:43:29 10° 92° (E) 2,933 - -28.9°
Sets 19:46:42 0° 102° (ESE) 3,905 - -29.6°
